Dewpoint
56 43 39 40 36 36 32 36 37 38 39 42 42 42 41 43 45 49 61 61 62 62 65 67 71 70 70 70 70 70 69 68 67 66 66 64 65 65 66 65 68 66 63 62 63 62 63 63 62
50 44 38 37 33 30 30 35 36 39 44 44 45 46 44 46 54 59 60 62 62 62 64 65 70 71 70 70 70 69 68 66 64 63 65 64 63 65 66 65 66 65 63 62 63 64 62 63 62
49 44 40 35 34 30 31 35 36 44 47 46 45 49 48 49 57 58 61 62 62 62 64 68 70 70 70 70 70 69 68 67 65 65 64 63 63 64 65 65 66 64 62 62 62 63 62 62 62
47 45 42 34 32 34 32 33 38 45 46 47 47 43 52 57 57 59 62 62 62 63 65 68 70 70 70 69 69 69 68 67 65 65 64 64 64 64 65 65 65 65 63 62 62 62 62 62 63
48 44 40 40 33 33 33 34 39 43 42 45 47 40 45 58 60 61 62 62 62 63 63 67 69 70 70 69 68 68 67 67 66 64 64 64 63 63 63 64 65 65 62 62 63 63 63 63 63
46 44 39 38 38 32 34 40 41 43 41 45 44 42 47 59 61 62 62 62 63 63 63 65 67 68 69 69 69 68 68 67 66 65 64 63 63 63 63 63 65 64 62 61 62 63 63 62 61
46 43 40 38 37 36 33 43 43 44 41 43 47 41 50 58 61 63 63 62 62 61 61 64 65 66 67 67 67 68 68 67 66 66 65 64 63 64 64 65 64 64 61 63 63 62 61 61 60
47 43 40 38 38 38 35 42 42 41 41 50 50 41 43 55 62 63 63 61 60 60 60 61 63 65 65 66 65 66 66 66 66 65 64 62 61 62 62 63 64 63 64 63 63 62 61 60 60
48 42 38 38 39 38 35 34 39 43 43 49 51 50 53 59 63 63 61 60 59 60 60 60 61 62 63 63 63 63 64 64 64 63 61 59 58 59 59 62 63 64 63 62 62 62 61 60 59
42 38 38 39 40 40 39 34 36 41 42 44 48 53 56 61 62 61 60 59 59 59 59 59 59 60 61 59 63 63 64 63 62 61 60 57 58 59 60 60 62 63 62 62 61 62 61 59 56
43 37 37 38 40 42 42 36 36 39 37 39 39 46 55 60 60 60 60 59 59 59 59 58 58 59 59 59 60 61 62 62 62 60 60 59 58 60 59 59 60 60 59 58 58 58 57 56 56
45 42 38 38 41 42 42 43 42 41 40 41 42 45 52 57 59 59 59 59 60 60 59 57 57 59 59 58 59 58 59 60 60 59 60 60 59 60 58 57 57 59 57 57 57 57 57 57 56
46 43 40 42 43 41 40 39 41 41 42 40 40 42 49 54 57 58 59 60 59 59 59 58 58 58 59 58 58 58 58 59 59 59 59 58 58 59 58 57 57 57 56 56 56 56 57 57 56
40 40 40 43 44 45 43 41 41 41 41 39 36 39 42 49 54 57 58 58 59 59 59 59 58 59 58 58 58 57 58 58 58 58 58 58 57 57 56 56 56 55 55 55 56 55 56 56 57
44 41 39 36 40 39 45 43 43 43 43 42 41 41 41 45 50 55 57 58 58 59 59 59 59 59 59 58 58 58 58 57 58 58 58 58 57 55 53 54 55 54 55 55 56 55 55 55 56
43 42 38 38 38 36 40 31 27 37 43 43 42 41 42 44 48 52 55 57 58 59 59 59 59 60 59 59 59 58 57 57 58 57 57 58 57 55 54 53 53 55 54 55 55 55 55 55 55
43 39 38 38 39 38 39 35 28 28 27 34 40 41 42 42 47 50 52 55 57 58 58 59 60 60 60 59 59 59 58 58 57 57 57 57 56 55 55 54 54 54 54 54 54 55 55 55 55
38 38 37 37 38 40 38 39 38 32 37 35 32 33 38 42 44 47 51 53 55 57 57 58 59 60 61 60 60 59 59 58 58 57 57 56 55 56 57 57 55 54 55 55 55 55 56 56 56
38 38 35 34 38 41 39 38 36 36 36 33 34 33 37 42 44 46 49 53 55 56 57 58 59 60 60 61 60 59 58 59 58 57 57 57 55 56 58 58 57 56 56 57 56 56 56 57 57
41 39 39 38 38 40 38 37 36 36 37 36 34 32 32 30 39 45 46 51 55 56 58 58 58 60 60 60 60 59 58 58 58 58 58 57 58 57 58 59 58 58 57 57 57 57 56 57 57
39 40 38 38 37 38 37 35 35 36 36 36 36 36 34 32 31 35 45 48 54 56 58 58 58 59 60 60 60 59 59 59 58 58 58 58 58 58 58 59 59 59 58 57 57 58 57 56 58
35 38 40 39 38 36 35 32 32 32 31 33 35 35 34 33 33 34 42 47 51 56 58 59 59 59 59 60 60 60 58 58 58 58 58 59 59 58 58 58 59 59 59 59 59 58 58 58 56
35 38 41 41 38 38 37 34 32 32 31 31 32 35 35 36 36 34 38 47 49 54 58 59 59 59 59 60 60 60 60 59 59 59 60 60 60 60 58 58 59 59 60 60 60 60 59 58 58
39 41 41 40 38 32 35 32 28 29 31 31 32 33 34 33 36 36 36 41 47 52 57 58 58 59 59 59 60 60 60 60 59 59 59 60 60 59 59 58 59 59 59 60 60 60 60 59 58
41 38 32 31 29 30 30 32 31 30 30 30 30 32 33 34 34 36 38 40 42 46 54 57 58 58 59 60 60 60 60 60 60 60 60 59 59 59 59 58 58 58 59 59 60 60 60 59 59
37 36 34 26 28 25 30 29 30 32 33 35 34 34 34 33 35 39 41 42 43 45 48 56 57 57 58 59 60 60 60 60 60 59 59 59 59 59 59 59 59 59 59 59 59 59 60 59 59
32 34 35 32 32 30 30 30 30 32 30 31 32 32 34 34 35 36 39 43 44 46 46 51 55 57 57 58 60 60 59 60 59 59 60 60 60 59 60 59 59 59 59 59 59 59 58 58 58
29 29 34 34 29 26 23 22 19 25 28 29 31 33 34 34 36 39 41 42 43 44 45 48 52 55 56 57 58 59 59 59 59 59 59 60 60 60 59 59 59 59 59 59 59 59 58 58 57
30 29 28 32 30 25 22 20 21 22 22 23 27 31 34 35 36 37 39 40 43 44 44 45 49 52 54 56 57 58 59 59 59 59 59 59 60 60 59 59 59 59 59 59 59 58 58 56 56
28 30 32 33 31 32 27 25 27 27 29 29 31 35 35 37 33 31 34 36 41 42 44 43 46 51 53 55 56 57 58 58 59 59 59 59 59 60 59 59 59 59 59 59 58 57 56 56 55
Lifted_Index
4 4 5 4 3 3 3 3 3 3 3 3 3 3 3 3 2 0 -0 -1 -1 -1 -1 -1 -2 -2 -2 -2 -1 -1 -0 0 1 1 2 2 2 2 2 2 2 3 4 5 5 5 5 5 6
3 4 4 4 3 3 3 3 3 3 3 3 3 3 3 2 1 1 -0 -0 -1 -1 -1 -1 -2 -2 -2 -2 -1 -0 0 1 2 2 2 3 3 2 2 2 2 3 4 5 5 5 5 6 6
2 3 3 3 3 3 3 3 3 2 2 2 2 2 2 2 1 1 0 -0 -0 -1 -0 -1 -1 -2 -2 -1 -1 -0 1 2 2 2 3 3 3 3 3 3 3 3 4 5 5 5 5 6 6
2 2 2 3 3 4 4 4 3 2 2 2 2 2 2 2 1 1 1 0 -0 -0 -0 -0 -1 -1 -1 -1 -1 0 1 2 2 3 3 3 3 3 3 3 3 4 5 5 5 5 5 5 5
1 1 1 2 3 4 4 4 4 2 2 2 2 3 2 2 1 1 1 0 -0 -0 -0 -0 -0 -1 -1 -1 -1 -0 1 2 3 3 4 4 4 4 4 4 3 4 5 5 5 5 5 5 5
1 1 1 1 2 3 4 4 3 2 2 2 3 3 2 1 1 1 1 0 0 0 0 0 0 -0 -0 -0 -0 -0 1 2 3 3 4 4 5 4 4 4 4 4 5 5 5 5 5 6 6
1 1 1 1 1 2 3 3 3 2 2 2 3 3 2 1 1 1 1 1 1 1 1 1 1 1 0 0 0 0 1 2 3 4 4 5 5 5 5 5 5 5 5 5 5 6 6 6 7
1 1 1 1 1 2 3 3 3 3 2 2 2 3 2 1 1 1 1 1 1 2 2 2 2 1 1 1 1 1 1 2 3 4 5 6 6 6 6 5 5 5 5 5 5 6 6 7 8
2 2 2 1 1 1 2 3 3 3 3 2 2 2 2 1 1 1 1 1 2 2 2 2 2 2 2 2 2 2 2 3 4 5 6 6 6 6 6 6 6 6 6 6 6 6 7 8 8
3 3 2 2 1 1 1 2 3 3 3 2 2 2 1 1 1 1 1 2 2 2 3 3 3 3 3 3 3 3 3 4 4 5 6 6 6 6 6 6 6 6 6 6 6 6 7 7 7
3 3 3 2 2 1 1 2 2 3 3 3 2 2 1 1 1 1 1 2 2 2 3 4 4 4 4 4 4 4 4 4 5 5 6 6 6 6 6 6 6 7 7 7 7 7 7 6 6
2 2 2 2 2 2 2 2 2 2 3 3 3 2 1 1 1 1 2 2 2 2 3 4 4 4 4 5 5 5 5 5 5 5 6 6 6 6 6 7 7 7 7 7 7 6 6 6 6
2 2 2 2 2 3 3 3 3 2 3 3 3 3 2 2 1 1 2 2 2 2 3 3 4 4 4 5 5 5 5 5 5 6 6 6 6 6 7 7 7 7 7 7 6 6 6 5 5
2 3 3 2 2 3 3 4 3 3 3 3 3 3 3 3 2 2 2 2 3 3 3 3 4 4 4 5 5 6 6 6 6 6 6 6 6 7 7 7 7 7 7 7 6 6 6 5 5
3 3 3 3 3 3 3 4 4 3 3 3 3 3 4 3 3 2 2 2 3 3 3 3 3 4 4 4 5 5 6 6 6 6 6 6 7 7 8 8 7 7 7 7 6 6 6 5 5
2 3 3 3 3 3 4 5 5 5 4 3 3 3 3 4 3 2 2 2 3 3 3 3 3 4 4 4 4 5 5 6 6 6 6 6 7 7 8 8 8 7 7 7 6 6 6 5 5
2 2 2 2 2 3 4 5 6 6 5 5 4 4 4 4 3 3 2 2 3 3 3 3 3 3 3 4 4 4 5 5 5 6 6 6 6 7 7 7 7 7 7 7 6 6 5 5 5
2 2 2 2 2 2 3 4 5 5 5 5 5 4 4 3 3 3 2 2 3 3 3 3 3 3 3 3 4 4 4 4 5 5 5 6 6 6 6 6 6 7 7 6 6 5 5 5 5
2 2 2 2 1 1 2 3 3 4 5 6 6 5 5 4 3 2 2 2 2 3 3 3 3 3 3 3 3 3 3 4 4 5 5 5 6 6 5 5 5 6 6 6 5 5 5 5 5
2 2 3 2 1 1 2 2 2 3 5 5 6 5 5 5 4 3 3 2 2 2 2 2 2 3 3 2 2 3 3 3 4 4 5 5 5 5 5 5 5 5 5 5 5 5 5 4 4
2 3 3 2 1 1 1 2 2 3 4 5 6 6 6 5 5 4 3 2 2 2 1 1 2 2 2 2 2 3 3 3 4 4 4 4 5 5 5 5 5 4 4 4 4 4 4 4 4
2 3 3 2 1 1 1 2 2 2 3 5 6 6 6 6 6 5 4 3 2 2 1 1 1 1 2 2 2 2 3 3 3 3 4 4 4 5 5 5 4 4 4 4 4 4 4 4 4
2 2 2 2 1 1 1 2 3 3 3 4 5 5 6 6 5 5 5 3 2 2 1 1 1 1 1 2 2 2 2 2 2 3 3 3 4 4 4 5 4 4 3 3 3 3 3 3 3
1 1 1 1 1 1 1 2 3 3 3 4 4 5 5 5 5 5 5 4 3 2 2 1 1 1 1 1 1 2 1 1 2 2 2 2 2 3 4 4 4 3 3 3 3 3 3 3 3
1 1 1 1 1 1 1 2 3 4 4 4 4 4 5 5 5 5 5 5 4 3 2 1 1 0 0 1 1 1 1 1 1 1 1 1 2 2 2 3 3 3 3 3 3 3 3 3 3
1 1 1 0 0 1 1 2 3 4 4 4 4 4 4 5 5 5 5 5 5 4 3 2 1 1 0 0 0 0 0 0 0 0 1 1 1 1 1 1 2 2 2 3 3 3 3 3 3
1 1 1 0 0 1 1 2 3 4 4 4 5 5 4 5 5 5 6 5 5 5 5 4 2 1 1 0 0 0 0 1 1 1 1 1 1 1 1 1 1 1 2 2 2 2 3 3 3
1 1 1 1 0 0 1 2 3 4 4 4 5 5 4 4 5 5 5 6 6 6 6 5 4 3 2 1 0 0 0 1 1 1 1 1 0 1 1 1 1 2 2 2 2 2 2 2 2
1 1 1 1 1 1 1 2 4 4 4 4 4 5 5 5 5 5 5 5 6 6 6 5 4 3 2 1 1 1 1 1 1 1 1 1 1 1 1 2 2 2 2 2 2 2 2 2 2
1 1 0 0 1 1 1 2 4 4 4 4 4 5 5 5 5 5 5 5 5 6 6 5 4 3 2 1 1 1 1 1 1 1 1 1 1 1 1 2 2 3 3 2 2 2 2 2 3